STARLINK-2363, 47903

Orbit data source: Space-Track

STARLINK-2363, 47903 is a payload satellite owned by SpaceX/Seattle (US) in LEO that was launched on Sun, 14 Mar 2021 UTC via an FALCON 9 launch vehicle from the Air Force Eastern Test Range (AFETR). Payload-class satellites include a variety of spacecraft equipped with specific instruments for various scientific and technological missions. These include communications satellites like Starlink; space stations such as the ISS; scientific satellites like the Hubble; Earth observation satellites from companies like Planet Labs, Umbra, and HawkEye 360; GPS; miniature CubeSats for education and research; and military/defense satellites.

Loading next visibility...
Identifier
47903, 2021-021AV
Orbit
LEO
Country
Flag of USUS
Related business
Manufacturer
SpaceX/Seattle
Mission
Partially operational Commercial Communications
Bus & Motor
STARLINK, Unknown motor
Mass
260 kg wet, ~248 kg dry
Launch date (UTC)
2021-03-14 (5 years ago)
Launch vehicle
FALCON 9
Launch site
Air Force Eastern Test Range (AFETR)
Object type
Payload
Rocket body
Debris
Shape & HBR
Box + 1 Pan, 10.1 m
Radar Cross Section
13.562 m², Large (>1 m²)

Expand to show TLE details & history
Last TLE update: 2 days ago

TLE from 2 days ago
0 STARLINK-2363
1 47903U 21021AV  26171.41668980  .00352381  61764-4  78241-3 0  9993
2 47903  53.1485 100.6879 0003931 205.6721 248.8643 15.97413161  6044
Epoch: 2026-06-20T10:00Z
TLE epoch observation values (Epoch: 2026-06-20T10:00:01.998Z)
Latitude
53.06998°
Longitude
139.5232°
Altitude
289.029 km
Speed
7.74 km/s
True Right ascension
13h 12m 39s
True Declination
52° 53' 35"
Sunlit
Object was in daylight at epoch
Visualization orbit readout
Latitude
Unknown
Longitude
Unknown
Altitude
Unknown
Speed
Unknown
Apparent Right ascension
Unknown
Apparent Declination
Unknown
Sunlit
N/A
Visualization observer readout
Local Sidereal Time
21:31:32
Azimuth
Unknown
Elevation
Unknown
Doppler factor
Unknown
Orbital elements
Apogee altitude
284.482 km
Perigee altitude
279.246 km
Semi-major axis
6,660.001 km
Eccentricity
0.00039
Inclination
53.1485°
RAAN
100.6879°
Arg. of periapsis
205.6721°
True anomaly
248.82229°
Mean anomaly
248.8643°
Eccentric anomaly
248.8433°
Mean motion
3.9933 °/min
Orbital period
90.15 mins
BSTAR
0.00078241
Loading maneuver chart data...
Computing Atmospheric mass density...

Documentation

Showing up to 5 results
|